TimeCDT,TemperatureF,Dew PointF,Humidity,Sea Level PressureIn,VisibilityMPH,Wind Direction,Wind SpeedMPH,Gust SpeedMPH,PrecipitationIn,Events,Conditions,WindDirDegrees,DateUTC
12:15 AM,78.1,68.9,73,29.95,10.0,South,3.5,-,N/A,,Clear,180,2013-08-30 05:15:00
12:35 AM,77.4,69.1,76,29.95,10.0,South,3.5,-,N/A,,Clear,190,2013-08-30 05:35:00
12:55 AM,77.0,69.1,76,29.95,10.0,South,3.5,-,N/A,,Clear,190,2013-08-30 05:55:00
1:15 AM,76.5,69.4,79,29.94,10.0,South,3.5,-,N/A,,Clear,180,2013-08-30 06:15:00
1:35 AM,76.1,69.3,79,29.94,10.0,South,4.6,-,N/A,,Clear,190,2013-08-30 06:35:00
1:55 AM,76.1,69.3,79,29.94,10.0,Calm,Calm,-,N/A,,Clear,0,2013-08-30 06:55:00
2:15 AM,76.1,69.3,79,29.94,10.0,Calm,Calm,-,N/A,,Clear,0,2013-08-30 07:15:00
2:35 AM,74.7,69.1,83,29.94,10.0,Calm,Calm,-,N/A,,Clear,0,2013-08-30 07:35:00
2:55 AM,74.1,69.1,84,29.94,10.0,SSW,3.5,-,N/A,,Clear,200,2013-08-30 07:55:00
3:15 AM,73.8,69.1,85,29.94,10.0,South,3.5,-,N/A,,Clear,190,2013-08-30 08:15:00
3:35 AM,73.6,69.8,88,29.93,10.0,South,3.5,-,N/A,,Clear,180,2013-08-30 08:35:00
3:55 AM,73.2,69.8,89,29.93,10.0,Calm,Calm,-,N/A,,Clear,0,2013-08-30 08:55:00
4:15 AM,72.9,69.8,90,29.92,10.0,South,3.5,-,N/A,,Clear,180,2013-08-30 09:15:00
4:35 AM,72.5,69.6,91,29.92,10.0,Calm,Calm,-,N/A,,Clear,0,2013-08-30 09:35:00
4:55 AM,72.3,69.6,91,29.92,10.0,South,3.5,-,N/A,,Clear,180,2013-08-30 09:55:00
5:15 AM,71.8,69.4,92,29.92,10.0,South,3.5,-,N/A,,Clear,180,2013-08-30 10:15:00
5:35 AM,71.6,69.4,93,29.92,10.0,Calm,Calm,-,N/A,,Clear,0,2013-08-30 10:35:00
5:55 AM,71.6,69.3,92,29.92,10.0,Calm,Calm,-,N/A,,Clear,0,2013-08-30 10:55:00
6:15 AM,71.6,69.3,92,29.91,10.0,Calm,Calm,-,N/A,,Clear,0,2013-08-30 11:15:00
6:35 AM,71.1,68.9,93,29.91,10.0,South,3.5,-,N/A,,Clear,190,2013-08-30 11:35:00
6:55 AM,71.4,69.3,93,29.92,10.0,South,4.6,-,N/A,,Clear,190,2013-08-30 11:55:00
7:15 AM,72.1,69.8,92,29.91,10.0,South,3.5,-,N/A,,Clear,190,2013-08-30 12:15:00
7:35 AM,73.9,70.5,89,29.92,10.0,Calm,Calm,-,N/A,,Clear,0,2013-08-30 12:35:00
7:55 AM,76.1,70.3,82,29.91,10.0,Calm,Calm,-,N/A,,Clear,0,2013-08-30 12:55:00
9:15 AM,82.0,70.0,67,29.91,10.0,WSW,4.6,-,N/A,,Clear,250,2013-08-30 14:15:00
9:35 AM,83.5,70.0,64,29.91,10.0,WSW,4.6,-,N/A,,Clear,240,2013-08-30 14:35:00
9:55 AM,84.2,69.8,62,29.91,10.0,WSW,6.9,-,N/A,,Clear,250,2013-08-30 14:55:00
10:15 AM,85.6,70.2,60,29.91,10.0,WSW,3.5,-,N/A,,Clear,250,2013-08-30 15:15:00
10:35 AM,87.1,69.4,56,29.90,10.0,West,6.9,-,N/A,,Clear,260,2013-08-30 15:35:00
10:55 AM,88.7,69.6,53,29.90,10.0,WSW,4.6,-,N/A,,Clear,240,2013-08-30 15:55:00
11:15 AM,90.5,69.6,50,29.90,10.0,Calm,Calm,-,N/A,,Clear,0,2013-08-30 16:15:00
11:35 AM,92.5,69.6,47,29.89,10.0,SSW,4.6,-,N/A,,Clear,200,2013-08-30 16:35:00
11:55 AM,94.1,68.5,43,29.89,10.0,South,4.6,-,N/A,,Clear,190,2013-08-30 16:55:00
12:15 PM,95.7,66.9,39,29.88,10.0,SSW,4.6,-,N/A,,Clear,210,2013-08-30 17:15:00
12:35 PM,96.3,65.7,36,29.87,10.0,SW,6.9,-,N/A,,Clear,220,2013-08-30 17:35:00
12:55 PM,97.0,64.4,34,29.87,10.0,WSW,5.8,-,N/A,,Clear,250,2013-08-30 17:55:00
1:15 PM,97.7,64.4,33,29.86,10.0,WSW,8.1,-,N/A,,Clear,250,2013-08-30 18:15:00
1:35 PM,97.9,63.7,32,29.86,10.0,WSW,8.1,-,N/A,,Clear,240,2013-08-30 18:35:00
1:55 PM,98.2,63.7,32,29.86,10.0,WSW,4.6,-,N/A,,Clear,250,2013-08-30 18:55:00
2:15 PM,98.6,64.6,33,29.85,10.0,West,9.2,-,N/A,,Clear,270,2013-08-30 19:15:00
2:35 PM,99.3,63.9,31,29.85,10.0,WSW,8.1,-,N/A,,Clear,240,2013-08-30 19:35:00
2:55 PM,99.5,63.0,30,29.84,10.0,WSW,5.8,-,N/A,,Clear,250,2013-08-30 19:55:00
3:15 PM,100.0,63.3,30,29.84,10.0,WSW,6.9,-,N/A,,Clear,250,2013-08-30 20:15:00
3:35 PM,100.4,63.5,30,29.83,10.0,West,6.9,-,N/A,,Clear,270,2013-08-30 20:35:00
3:55 PM,100.4,62.8,29,29.83,10.0,WSW,8.1,-,N/A,,Clear,250,2013-08-30 20:55:00
4:15 PM,100.4,62.6,29,29.82,10.0,WSW,4.6,-,N/A,,Clear,240,2013-08-30 21:15:00
4:35 PM,100.4,63.9,30,29.82,10.0,Calm,Calm,-,N/A,,Clear,0,2013-08-30 21:35:00
4:55 PM,100.4,63.5,30,29.81,10.0,Calm,Calm,-,N/A,,Clear,0,2013-08-30 21:55:00
5:15 PM,100.4,64.0,30,29.81,10.0,WSW,4.6,-,N/A,,Clear,250,2013-08-30 22:15:00
5:35 PM,100.2,64.6,31,29.81,10.0,West,3.5,-,N/A,,Clear,260,2013-08-30 22:35:00
5:55 PM,99.3,64.4,32,29.80,10.0,West,4.6,-,N/A,,Clear,270,2013-08-30 22:55:00
6:15 PM,97.9,65.3,34,29.80,10.0,West,5.8,-,N/A,,Clear,260,2013-08-30 23:15:00
6:35 PM,96.4,65.3,36,29.79,10.0,West,4.6,-,N/A,,Clear,260,2013-08-30 23:35:00
6:55 PM,94.6,65.1,38,29.79,10.0,WSW,5.8,-,N/A,,Clear,250,2013-08-30 23:55:00
7:15 PM,92.8,65.8,41,29.79,10.0,WSW,4.6,-,N/A,,Clear,250,2013-08-31 00:15:00
7:35 PM,90.1,67.1,46,29.80,10.0,West,4.6,-,N/A,,Clear,260,2013-08-31 00:35:00
7:55 PM,88.0,67.3,50,29.80,10.0,West,5.8,-,N/A,,Clear,260,2013-08-31 00:55:00
8:15 PM,88.3,66.7,49,29.80,10.0,West,5.8,-,N/A,,Clear,260,2013-08-31 01:15:00
8:35 PM,86.5,67.3,52,29.80,10.0,NNW,3.5,-,N/A,,Clear,340,2013-08-31 01:35:00
8:55 PM,84.7,67.6,56,29.81,10.0,West,4.6,-,N/A,,Clear,270,2013-08-31 01:55:00
9:15 PM,82.6,68.0,61,29.81,10.0,West,3.5,-,N/A,,Clear,270,2013-08-31 02:15:00
9:35 PM,81.7,68.5,64,29.80,10.0,West,4.6,-,N/A,,Clear,280,2013-08-31 02:35:00
9:55 PM,80.8,68.9,67,29.81,10.0,NW,4.6,-,N/A,,Clear,320,2013-08-31 02:55:00
10:15 PM,82.0,71.6,71,29.81,10.0,North,3.5,-,N/A,,Clear,360,2013-08-31 03:15:00
10:35 PM,80.6,73.9,80,29.81,10.0,North,4.6,-,N/A,,Clear,360,2013-08-31 03:35:00
10:55 PM,80.6,74.5,82,29.81,10.0,NNW,4.6,-,N/A,,Clear,340,2013-08-31 03:55:00
11:15 PM,79.5,74.3,84,29.81,10.0,North,4.6,-,N/A,,Clear,350,2013-08-31 04:15:00
11:35 PM,79.0,74.5,86,29.81,10.0,NNW,4.6,-,N/A,,Clear,340,2013-08-31 04:35:00
11:55 PM,78.4,74.3,87,29.81,10.0,NNW,6.9,-,N/A,,Clear,340,2013-08-31 04:55:00